weather.gov     
National Weather Service

Terminal Aerodrome Forecast
NWS Homepage
This page is being discontinued on March 12, 2014.
The same data is available at this site. Please update your bookmarks.
Thank you, and we apologize for the inconvenience.
Please send an email to SR-SRH.Webmaster@noaa.gov with any concerns.


Current Version
Previous Version:    01  02  03  04  05  06  07  08  09  10  11  12  13  14  15  16  17  18  19  20  21  22  23  24  25  26  27  28  29  30  
   31  32  33  34  35  36  37  38  39  40  41  42  43  44  45  
[Printable]
295
FTUS46 KLOX 250300 AAA
TAFLAX
TAF AMD
KLAX 250310Z 2503/2606 26006KT P6SM SKC
     FM250600 VRB03KT 4SM BR OVC008
     FM251500 VRB03KT 5SM BR OVC012
     FM251800 24006KT P6SM OVC015
     FM252000 24014KT P6SM SCT020
     FM260300 27008KT P6SM BKN010=


U.S. Dept. of Commerce
NOAA National Weather Service
1325 East West Highway
Silver Spring, MD 20910
E-mail: w-nws.webmaster@noaa.gov
Page last modified: May 16, 2007
NATIONAL WEATHER SERVICE: for Safety, for Work, for Fun - FOR LIFE